Location: Marcé
(47.5801°N, 0.3280°W)
Time: 08:56:15
(UTC+01:00)

BlueWalker 3 - Pass Details

Date: 05 December 2022
Orbit: 499 x 517 km, 53.2° (Epoch: 29 January)

Event Time Altitude Azimuth Distance (km) Brightness Sun altitude
Rises 17:36:49 0° 281° (W) 2,635 6.5 -4.6°
Reaches altitude 10° 17:39:10 10° 290° (WNW) 1,744 5.3 -5.0°
Maximum altitude 17:42:49 35° 358° (N) 844 2.9 -5.5°
Drops below altitude 10° 17:46:27 10° 66° (ENE) 1,732 4.0 -6.1°
Enters shadow 17:46:58 - 68° (ENE) 1,919 4.2 -6.1°
